Location: Home
(42.5358°N, 72.7383°W)
Time: 18:15:03
(UTC-05:00)

Tiros 1 - Pass Details

Date: 01 December 2021
Orbit: 629 x 664 km, 48.4° (Epoch: 18 January)

Event Time Altitude Azimuth Distance (km) Brightness Sun altitude
Enters shadow 20:44:13 - 264° (W) 2,944 11.2 -48.1°
Rises 20:44:16 0° 264° (W) 2,929 - -48.1°
Reaches altitude 10° 20:46:38 10° 269° (W) 2,027 - -48.5°
Maximum altitude 20:51:11 50° 345° (NNW) 822 - -49.3°
Drops below altitude 10° 20:55:47 10° 62° (ENE) 2,053 - -50.1°
Sets 20:58:12 0° 67° (ENE) 2,971 - -50.6°
